Other Surface Observations
Issued by NWS

Home | Current Version | Previous Version | Text Only | Print | Product List | Glossary On
Versions: 1 2 3 4 5 6 7 8 9 10 11 12 13 14 15 16 17 18 19 20 21 22 23 24 25 26 27 28 29 30 31 32 33 34 35 36 37 38 39 40 41 42 43 44 45 46 47 48 49 50
000
SXUS52 KTAE 090418
OSOTAE
OSOTAE
North Florida/South Alabama/Southwest Georgia Weather Roundup
National Weather Service Tallahassee Florida
1100 PM EST THU DEC 08 2016

Note: "fair" indicates few or no clouds below 12,000 feet with no
significant weather and/or obstructions to visibility.

!FLZ017-115-028-034-025-090500
...North Florida...

CITY           SKY/WX    TMP DP  RH WIND       PRES   REMARKS
TALLAHASSEE    CLOUDY    52  29  41 N13G20    30.34R
APALACHICOLA   CLOUDY    55  36  48 N14       30.33R
PERRY          CLOUDY    55  33  43 N7        30.30R
CROSS CITY     CLOUDY    55  39  54 N9G18     30.26S
JACKSONVILLE   CLOUDY    54  39  57 N8        30.26R
$$

!FLZ112-006-005-002-011-090500
...Florida Panhandle...

CITY           SKY/WX    TMP DP  RH WIND       PRES   REMARKS
MARIANNA       MOCLDY    48  27  44 N9        30.37R WCI  44
BONIFAY        FAIR      46  28  49 N7        30.40R WCI  42
PANAMA CITY NW FAIR      50  29  44 N12       30.36R
TYNDALL AFB    CLOUDY    51  28  40 N13       30.35R
TYND DRONE APT MOCLDY    51  31  45 N18       30.35R
DE FUNIAK SPR  FAIR      45  26  48 N10       30.41R WCI  39
EGLIN AFB      MOCLDY    47  26  43 N14       30.39R WCI  42
DESTIN         CLOUDY    51  29  42 N13G22    30.39R
HURLBURT       MOCLDY    47  24  39 N14       30.38R WCI  42
CRESTVIEW      MOCLDY    45  27  49 N5        30.42R WCI  43
PENSACOLA      CLOUDY    47  28  47 N14G21    30.41R WCI  41
$$

!ALZ063-066-090500
...South Alabama...

CITY           SKY/WX    TMP DP  RH WIND       PRES   REMARKS
DOTHAN         PTCLDY    43  28  55 N9        30.41R WCI  38
OZARK CAIRNS   PTCLDY    44  24  45 N9        30.39R WCI  39
FT RUCKER HELI CLOUDY    43  26  51 N6        30.39R WCI  39
RUCKER HELI 3  NOT AVBL
RUCKER HELI 2  FAIR      44  23  43 N9        30.39R WCI  39
FLORALA APT    PTCLDY    43  26  51 N6        30.42R WCI  39
ANDALUSIA      PTCLDY    45  25  45 NW3       30.41R
TROY           PTCLDY    40  24  53 N9        30.41R WCI  34
EUFALA         FAIR      41  25  53 NW5       30.38R WCI  38
MOBILE         CLOUDY    44  26  49 N12       30.43F WCI  38
$$

!GAZ120>161-090500
...Southwest and South Central Georgia...

CITY           SKY/WX    TMP DP  RH WIND       PRES   REMARKS
THOMASVILLE    FAIR      50  30  46 N8        30.35R
BAINBRIDGE     PTCLDY    46  30  53 N6        30.37R WCI  43
MOODY AFB      PTCLDY    48  24  38 N13       30.31R WCI  43
VALDOSTA       MOCLDY    48  30  49 VRB7      30.33R WCI  45
MOULTRIE       MOCLDY    48  28  46 N10       30.34R WCI  44
BLAKELY        PTCLDY    46  28  49 CALM      30.38S
ALBANY         PTCLDY    45  26  47 N8G21     30.37S WCI  41
TIFTON         FAIR      46  25  44 N10G21    30.32S WCI  41
FITZGERALD     FAIR      46  27  47 N9        30.35R WCI  41
CORDELE        FAIR      46  24  43 N8        30.37R WCI  41
AMERICUS       FAIR      41  23  48 NW6       30.38R WCI  37
HOMERVILLE     FAIR      48  30  49 N7        30.31R
$$

!GMZ750-755-770-775-090500
...Coastal and Buoy Obs...

STATION/POSITION TIME  TEMP    WIND        PRES    VSBY  WAVE
                       AIR SEA DIR/SP/G                  HT/PER
                 (UTC) (F)     (DEG/KT/KT) (MB)    (MI)  (FT/S)
KEATON BEACH     0400   55      10/  7/ 10 1025.3R
CEDAR KEY        0400   57     350/  4/  5 1025.4R
C TOWER          0400   56      10/ 23/ 26 1026.4R
APALACHICOLA BUO 0350   64 74   20/ 19/ 21 1024.6R         5/ 6
PANAMA CITY BUOY 0350   61 74              1025.4S         5/ 5
MOBILE BUOY      0400   58 74   20/ 23/ 31 1028.0
ORANGE BCH AL BU 0350   51 69   20/ 23/ 27 1029.1R         4/ 5
$$




USA.gov is the U.S. government's official web portal to all federal, state and local government web resources and services.